Time,TemperatureF,DewpointF,PressureIn,WindDirection,WindDirectionDegrees,WindSpeedMPH,WindSpeedGustMPH,Humidity,HourlyPrecipIn,Conditions,Clouds,dailyrainin,SolarRadiationWatts/m^2,SoftwareType,DateUTC
2013-07-09 00:00:00,65.0,64.0,-100.00,WNW,292,1.0,-999.0,98,-99.99,,,-99.99,0.000000,,2013-07-09 04:00:00,
2013-07-09 00:43:00,65.0,64.0,-100.00,WNW,292,1.0,-999.0,98,-99.99,,,-99.99,0.000000,,2013-07-09 04:43:00,
2013-07-09 00:53:00,65.0,64.0,-100.00,WNW,292,1.0,-999.0,98,-99.99,,,-99.99,0.000000,,2013-07-09 04:53:00,
2013-07-09 01:00:00,65.0,64.0,-100.00,West,270,0.0,-999.0,98,-99.99,,,-99.99,0.000000,,2013-07-09 05:00:00,
2013-07-09 01:34:00,65.0,64.0,-100.00,West,270,0.0,-999.0,98,-99.99,,,-99.99,0.000000,,2013-07-09 05:34:00,
2013-07-09 01:42:00,65.0,64.0,-100.00,West,270,0.0,-999.0,98,-99.99,,,-99.99,0.000000,,2013-07-09 05:42:00,
2013-07-09 01:52:00,65.0,64.0,-100.00,West,270,0.0,-999.0,98,-99.99,,,-99.99,0.000000,,2013-07-09 05:52:00,
2013-07-09 02:00:00,65.0,64.0,-100.00,WSW,247,1.0,-999.0,98,-99.99,,,-99.99,0.000000,,2013-07-09 06:00:00,
2013-07-09 02:43:00,65.0,64.0,-100.00,WSW,247,1.0,-999.0,98,-99.99,,,-99.99,0.000000,,2013-07-09 06:43:00,
2013-07-09 02:53:00,65.0,64.0,-100.00,WSW,247,1.0,-999.0,98,-99.99,,,-99.99,0.000000,,2013-07-09 06:53:00,
2013-07-09 03:00:00,65.0,64.0,-100.00,NW,315,0.0,-999.0,98,-99.99,,,-99.99,0.000000,,2013-07-09 07:00:00,
2013-07-09 03:43:00,65.0,64.0,-100.00,NW,315,0.0,-999.0,98,-99.99,,,-99.99,0.000000,,2013-07-09 07:43:00,
2013-07-09 03:53:00,65.0,64.0,-100.00,NW,315,0.0,-999.0,98,-99.99,,,-99.99,0.000000,,2013-07-09 07:53:00,
2013-07-09 04:00:00,66.0,65.0,-100.00,SSE,157,0.0,-999.0,98,-99.99,,,-99.99,0.000000,,2013-07-09 08:00:00,
2013-07-09 04:43:00,66.0,65.0,-100.00,SSE,157,0.0,-999.0,98,-99.99,,,-99.99,0.000000,,2013-07-09 08:43:00,
2013-07-09 04:52:00,66.0,65.0,-100.00,SSE,157,0.0,-999.0,98,-99.99,,,-99.99,0.000000,,2013-07-09 08:52:00,
2013-07-09 05:00:00,65.0,65.0,-100.00,SE,135,1.0,-999.0,98,-99.99,,,-99.99,1.160000,,2013-07-09 09:00:00,
2013-07-09 05:42:00,65.0,65.0,-100.00,SE,135,1.0,-999.0,98,-99.99,,,-99.99,1.160000,,2013-07-09 09:42:00,
2013-07-09 05:53:00,65.0,65.0,-100.00,SE,135,1.0,-999.0,98,-99.99,,,-99.99,1.160000,,2013-07-09 09:53:00,
2013-07-09 06:00:00,65.0,65.0,-100.00,SSE,157,0.0,-999.0,98,-99.99,,,-99.99,1.160000,,2013-07-09 10:00:00,
2013-07-09 06:42:00,65.0,65.0,-100.00,SSE,157,0.0,-999.0,98,-99.99,,,-99.99,1.160000,,2013-07-09 10:42:00,
2013-07-09 06:52:00,65.0,65.0,-100.00,SSE,157,0.0,-999.0,98,-99.99,,,-99.99,1.160000,,2013-07-09 10:52:00,
2013-07-09 07:00:00,64.0,64.0,-100.00,SE,135,0.0,-999.0,98,-99.99,,,-99.99,16.240000,,2013-07-09 11:00:00,
2013-07-09 07:42:00,64.0,64.0,-100.00,SE,135,0.0,-999.0,98,-99.99,,,-99.99,16.240000,,2013-07-09 11:42:00,
2013-07-09 07:53:00,64.0,64.0,-100.00,SE,135,0.0,-999.0,98,-99.99,,,-99.99,16.240000,,2013-07-09 11:53:00,
2013-07-09 08:00:00,65.0,65.0,-100.00,SSE,157,0.0,-999.0,98,-99.99,,,-99.99,52.200001,,2013-07-09 12:00:00,
2013-07-09 08:43:00,65.0,65.0,-100.00,SSE,157,0.0,-999.0,98,-99.99,,,-99.99,52.200001,,2013-07-09 12:43:00,
2013-07-09 08:53:00,65.0,65.0,-100.00,SSE,157,0.0,-999.0,98,-99.99,,,-99.99,52.200001,,2013-07-09 12:53:00,
2013-07-09 09:00:00,66.0,66.0,-100.00,ESE,112,0.0,-999.0,98,-99.99,,,-99.99,117.160004,,2013-07-09 13:00:00,
2013-07-09 09:43:00,66.0,66.0,-100.00,ESE,112,0.0,-999.0,98,-99.99,,,-99.99,117.160004,,2013-07-09 13:43:00,
2013-07-09 09:53:00,66.0,66.0,-100.00,ESE,112,0.0,-999.0,98,-99.99,,,-99.99,117.160004,,2013-07-09 13:53:00,
2013-07-09 10:00:00,67.0,67.0,-100.00,SE,135,1.0,-999.0,98,-99.99,,,-99.99,203.000000,,2013-07-09 14:00:00,
2013-07-09 10:43:00,67.0,67.0,-100.00,SE,135,1.0,-999.0,98,-99.99,,,-99.99,203.000000,,2013-07-09 14:43:00,
2013-07-09 10:53:00,67.0,67.0,-100.00,SE,135,1.0,-999.0,98,-99.99,,,-99.99,203.000000,,2013-07-09 14:53:00,
2013-07-09 11:00:00,68.0,67.0,-100.00,ESE,112,2.0,-999.0,98,-99.99,,,-99.99,184.440002,,2013-07-09 15:00:00,
2013-07-09 11:52:00,68.0,67.0,-100.00,ESE,112,2.0,-999.0,98,-99.99,,,-99.99,184.440002,,2013-07-09 15:52:00,
2013-07-09 12:00:00,69.0,67.0,-100.00,SE,135,3.0,-999.0,94,-99.99,,,-99.99,272.600006,,2013-07-09 16:00:00,
2013-07-09 12:43:00,69.0,67.0,-100.00,SE,135,3.0,-999.0,94,-99.99,,,-99.99,272.600006,,2013-07-09 16:43:00,
2013-07-09 12:53:00,69.0,67.0,-100.00,SE,135,3.0,-999.0,94,-99.99,,,-99.99,272.600006,,2013-07-09 16:53:00,
2013-07-09 13:00:00,72.0,68.0,-100.00,SE,135,3.0,-999.0,87,-99.99,,,-99.99,327.119995,,2013-07-09 17:00:00,
2013-07-09 13:53:00,72.0,68.0,-100.00,SE,135,3.0,-999.0,87,-99.99,,,-99.99,327.119995,,2013-07-09 17:53:00,
2013-07-09 14:00:00,73.0,68.0,-100.00,West,270,3.0,-999.0,83,-99.99,,,-99.99,554.479980,,2013-07-09 18:00:00,
2013-07-09 14:43:00,73.0,68.0,-100.00,West,270,3.0,-999.0,83,-99.99,,,-99.99,554.479980,,2013-07-09 18:43:00,
2013-07-09 14:52:00,73.0,68.0,-100.00,West,270,3.0,-999.0,83,-99.99,,,-99.99,554.479980,,2013-07-09 18:52:00,
2013-07-09 15:00:00,75.0,68.0,-100.00,SSW,202,2.0,-999.0,78,-99.99,,,-99.99,482.559998,,2013-07-09 19:00:00,
2013-07-09 15:42:00,75.0,68.0,-100.00,SSW,202,2.0,-999.0,78,-99.99,,,-99.99,482.559998,,2013-07-09 19:42:00,
2013-07-09 15:52:00,75.0,68.0,-100.00,SSW,202,2.0,-999.0,78,-99.99,,,-99.99,482.559998,,2013-07-09 19:52:00,
2013-07-09 16:00:00,75.0,67.0,-100.00,ESE,112,5.0,-999.0,77,-99.99,,,-99.99,509.239990,,2013-07-09 20:00:00,
2013-07-09 16:43:00,75.0,67.0,-100.00,ESE,112,5.0,-999.0,77,-99.99,,,-99.99,509.239990,,2013-07-09 20:43:00,
2013-07-09 16:52:00,75.0,67.0,-100.00,ESE,112,5.0,-999.0,77,-99.99,,,-99.99,509.239990,,2013-07-09 20:52:00,
2013-07-09 17:00:00,75.0,68.0,-100.00,SE,135,3.0,-999.0,77,-99.99,,,-99.99,314.359985,,2013-07-09 21:00:00,
2013-07-09 17:43:00,75.0,68.0,-100.00,SE,135,3.0,-999.0,77,-99.99,,,-99.99,314.359985,,2013-07-09 21:43:00,
2013-07-09 17:52:00,75.0,68.0,-100.00,SE,135,3.0,-999.0,77,-99.99,,,-99.99,314.359985,,2013-07-09 21:52:00,
2013-07-09 18:00:00,70.0,67.0,-100.00,West,270,4.0,-999.0,88,-99.99,,,-99.99,350.320007,,2013-07-09 22:00:00,
2013-07-09 18:42:00,70.0,67.0,-100.00,West,270,4.0,-999.0,88,-99.99,,,-99.99,350.320007,,2013-07-09 22:42:00,
2013-07-09 18:53:00,70.0,67.0,-100.00,West,270,4.0,-999.0,88,-99.99,,,-99.99,350.320007,,2013-07-09 22:53:00,
2013-07-09 19:00:00,68.0,66.0,-100.00,West,270,4.0,-999.0,93,-99.99,,,-99.99,120.639999,,2013-07-09 23:00:00,
2013-07-09 19:43:00,68.0,66.0,-100.00,West,270,4.0,-999.0,93,-99.99,,,-99.99,120.639999,,2013-07-09 23:43:00,
2013-07-09 19:53:00,68.0,66.0,-100.00,West,270,4.0,-999.0,93,-99.99,,,-99.99,120.639999,,2013-07-09 23:53:00,
2013-07-09 20:00:00,67.0,66.0,-100.00,West,270,1.0,-999.0,95,-99.99,,,-99.99,19.719999,,2013-07-10 00:00:00,
2013-07-09 20:43:00,67.0,66.0,-100.00,West,270,1.0,-999.0,95,-99.99,,,-99.99,19.719999,,2013-07-10 00:43:00,
2013-07-09 20:52:00,67.0,66.0,-100.00,West,270,1.0,-999.0,95,-99.99,,,-99.99,19.719999,,2013-07-10 00:52:00,
2013-07-09 21:00:00,70.0,66.0,-100.00,SSE,157,3.0,-999.0,89,-99.99,,,-99.99,39.439999,,2013-07-10 01:00:00,
2013-07-09 21:43:00,70.0,66.0,-100.00,SSE,157,3.0,-999.0,89,-99.99,,,-99.99,39.439999,,2013-07-10 01:43:00,
2013-07-09 21:53:00,70.0,66.0,-100.00,SSE,157,3.0,-999.0,89,-99.99,,,-99.99,39.439999,,2013-07-10 01:53:00,
2013-07-09 22:00:00,68.0,66.0,-100.00,SSE,157,1.0,-999.0,93,-99.99,,,-99.99,2.320000,,2013-07-10 02:00:00,
2013-07-09 22:53:00,68.0,66.0,-100.00,SSE,157,1.0,-999.0,93,-99.99,,,-99.99,2.320000,,2013-07-10 02:53:00,
2013-07-09 23:00:00,71.0,68.0,-100.00,South,180,5.0,-999.0,88,-99.99,,,-99.99,0.000000,,2013-07-10 03:00:00,
2013-07-09 23:43:00,71.0,68.0,-100.00,South,180,5.0,-999.0,88,-99.99,,,-99.99,0.000000,,2013-07-10 03:43:00,
2013-07-09 23:52:00,71.0,68.0,-100.00,South,180,5.0,-999.0,88,-99.99,,,-99.99,0.000000,,2013-07-10 03:52:00,